Погода в Дугине

Россия / Смоленская область     55°41′18″N   34°11′30″E
темп.,
°C
ветер,
м/с
пор.,
м/с
влажн.,
%
обл.,
%
осадки,
мм/ч
давл.,
гПа
погр.,
м
12 апреля, пн
пн1200:00+8ююв33735 0.0 103126
03:00+6ююв33780 0.0 103238
06:00+5юв34810 0.0 103256
09:00+9юв5106457 0.0 1031394
12:00+13вюв6946100 0.0 1030902
15:00+13вюв6943100 0.0 10281070
18:00+11вюв4963100 0.0 1027558
21:00+9вюв3984100 0.0 1027217
13 апреля, вт
вт1300:00+8вюв3994100 0.0 1025220
03:00+7вюв2396100 0.0 102453
06:00+7юв3395100 0.0 102364
09:00+10юв3483100 0.0 1023188
12:00+15ю4763100 0.0 1022625
15:00+17ю4755100 0.0 1022940
18:00+17ююв51058100 0.0 1020335
21:00+12ююв41274100 0.0 1021219
14 апреля, ср
ср1400:00+12ююв41072100 0.0 1020202
03:00+10ююв3876100 0.0 1020151
06:00+10юв41178100 0.0 1019226
09:00+12ю5127496 0.0 1019695
12:00+16ю575879 0.0 10181176
15:00+17ю4756100 0.9 10171279
18:00+14ююз2371100 1.6 101763
21:00+12ссв1175100 2.1 101710
15 апреля, чт
чт1500:00+10в2282100 0.0 101727
03:00+10сз0183100 0.1 101712
06:00+9в2387100 0.7 101766
09:00+9вюв1191100 1.2 101717
12:00+9в1194100 0.3 101844
15:00+9св2295100 0.4 101763
18:00+10с3493100 0.1 1017168
21:00+8с3797100 0.1 1017159
16 апреля, пт
пт1600:00+8ссв4896100 0.0 1017243
03:00+7ссв6109697 0.0 1017286
06:00+6св61195100 0.0 1018463
09:00+7св71290100 0.0 1019587
12:00+8св81182100 0.0 1020776
15:00+7св81383100 0.0 1022831
18:00+7св71469100 0.0 1023911
21:00+6св815645 0.0 1025648